[[{"header":{"parameterUnit":"m.s-1","parameterCategory":1,"la1":30.2991,"la2":30.254,"lo1":-89.0895,"lo2":-89.0444,"dy":0.0017,"dx":0.0017,"nx":28,"ny":28,"refTime":"2026-02-25T03:00:00:Z","depth":0,"parameterNumber":2,"parameterNumberName":"U-component_of_WINDS"},"data":[0,0,0,0,0,0,0,0,0,0,0,0,0,0,0,0,0,0,0,0,0,0,0,0,0,0,0,0,0,0,0,0,0,0,0,0,0,0,0,0,0,0,0,0,0,0,0,0,0,0,0,0,0,0,0,0,0,0,3.2706,3.2708,0,3.2911,3.2914,3.2916,3.2945,3.2943,3.2941,3.2939,3.3146,3.3153,3.316,0,0,0,0,0,0,0,0,0,0,0,0,0,3.2333,3.234,3.2706,3.2709,3.2711,3.2911,3.2914,3.2917,3.2945,3.2943,3.2941,3.2938,3.3144,3.3152,3.3161,0,0,0,0,0,0,0,0,0,0,0,0,0,3.2512,3.2342,3.2705,3.275,3.2756,3.291,3.2914,3.2917,3.2946,3.2943,3.294,3.2937,3.3141,3.3151,3.3162,3.3286,0,0,3.3195,3.32,0,0,0,0,0,0,0,0,3.2502,3.2526,3.2741,3.2747,3.2754,3.29,3.2858,3.3041,3.2946,3.2873,3.2939,3.2936,3.3066,3.3083,3.3128,3.3296,3.3305,3.3196,3.3203,3.3208,3.3211,0,0,0,0,0,0,0,3.249,3.2517,3.2787,3.2744,3.2752,3.2757,3.278,3.2893,3.2983,3.2879,3.2882,3.2906,3.3069,3.3117,3.3133,3.3308,3.3196,3.3206,3.3213,3.3217,3.3584,3.3587,0,0,0,0,0,0,3.247,3.2507,3.2781,3.2793,3.2619,3.2766,3.2791,3.2856,3.2982,3.2999,3.2908,3.2907,3.31,3.312,3.314,3.3291,3.3208,3.3218,3.3224,3.3581,3.3585,3.3588,0,0,0,0,0,0,3.2462,3.2494,3.2772,3.2651,3.2687,3.2776,3.2848,3.2861,3.2909,3.3004,3.302,3.2941,3.3098,3.3125,3.3249,3.3298,3.3223,3.3233,3.3577,3.3582,3.3587,3.3595,0,0,0,0,0,0,3.2451,3.2491,3.2541,3.2652,3.2693,3.2879,3.2851,3.2867,3.2928,3.2928,3.3039,3.3054,3.3098,3.3233,3.326,3.3312,3.3241,3.3573,3.3579,3.3585,3.359,3.3599,3.3607,0,0,0,0,0,3.2438,3.2535,3.2543,3.2576,3.2757,3.2882,3.2906,3.2955,3.2932,3.2981,3.3042,3.3051,3.3289,3.3245,3.3276,3.3332,3.357,3.3578,3.3585,3.3587,3.3597,3.3607,0,0,0,0,0,0,3.2427,3.255,3.2561,3.2697,3.2779,3.2887,3.2951,3.2966,3.3055,3.3051,3.3108,3.3132,3.3253,3.3306,3.3254,3.3457,3.3427,3.3441,3.3418,3.3429,3.3437,3.3421,3.325,0,0,0,0,0,3.244,3.2533,3.2636,3.2746,3.2786,3.2861,3.2918,3.2949,3.3036,3.307,3.314,3.3222,3.3315,3.3376,3.3467,3.3599,3.3621,3.3652,3.366,3.3667,3.3677,3.3747,3.3761,3.3612,3.3612,3.3612,0,0,3.2469,3.2548,3.2603,3.2746,3.2813,3.2905,3.289,3.299,3.3058,3.3085,3.3206,3.326,3.3355,3.3483,3.3543,3.353,3.3723,3.3676,3.368,3.3687,3.3756,3.377,3.3782,3.3617,3.3616,3.3615,0,0,3.2568,3.2638,3.2736,3.2804,3.2905,3.2954,3.2977,3.3083,3.312,3.3243,3.3263,3.3345,3.3505,3.3571,3.3626,3.3747,3.3757,3.3776,3.3817,3.3885,3.3896,3.3907,3.3947,3.3961,3.3786,3.3786,3.3786,0,3.259,3.2732,3.2784,3.2883,3.2943,3.2972,3.307,3.3132,3.3258,3.3298,3.3283,3.3482,3.3549,3.3691,3.372,3.3765,3.379,3.3762,3.3891,3.3902,3.3913,3.3951,3.3966,3.3787,3.3787,3.3787,3.3787,0,3.2752,3.285,3.2917,3.3038,3.3106,3.3204,3.3268,3.3331,3.3356,3.3405,3.3528,3.3609,3.3715,3.3751,3.3777,3.3896,3.3885,3.388,3.385,3.3927,3.3964,3.398,3.3789,3.3789,3.3788,3.3788,0,0,3.285,3.2997,3.3021,3.3074,3.3188,3.3264,3.3361,3.3466,3.3517,3.3602,3.3683,3.3817,3.3812,3.3874,3.3907,3.3966,3.4053,3.3954,3.3957,3.3966,3.4185,3.4186,3.4202,3.4061,3.4064,3.4067,3.4176,0,3.2959,3.3135,3.3184,3.3332,3.3421,3.3448,3.3533,3.361,3.3659,3.374,3.3793,3.3886,3.3874,3.3911,3.3971,3.4029,3.4097,3.4023,3.4134,3.4137,3.4106,3.4222,3.4225,3.4324,3.4191,3.4193,3.4195,0,3.3111,3.3199,3.3356,3.3455,3.3494,3.3569,3.3667,3.3746,3.3833,3.3863,3.3931,3.3958,3.4058,3.4025,3.4161,3.411,3.4158,3.4193,3.4198,3.4208,3.4169,3.4233,3.4357,3.4371,3.4219,3.4217,3.4216,0,3.3162,3.332,3.3433,3.3479,3.3599,3.365,3.3702,3.3787,3.3845,3.3931,3.3969,3.4065,3.4116,3.4189,3.4239,3.4211,3.437,3.4342,3.4396,3.4395,3.4427,3.4424,3.4558,3.4463,3.4463,3.4462,3.4462,0,3.3278,3.3372,3.3458,3.3527,3.3632,3.3686,3.3788,3.384,3.3915,3.3993,3.4023,3.4095,3.416,3.424,3.428,3.4385,3.4409,3.4435,3.4444,3.4431,3.4427,3.4461,3.4455,3.4466,3.4465,3.4465,3.4464,0,3.3352,3.3414,3.3539,3.3641,3.3669,3.3741,3.3828,3.3895,3.3944,3.4042,3.4069,3.4145,3.4241,3.4299,3.4421,3.4448,3.4562,3.457,3.4533,3.4536,3.4586,3.4579,3.4745,3.4768,3.4659,3.466,3.4661,0,3.3421,3.3494,3.3604,3.3658,3.3711,3.3799,3.3859,3.3915,3.3975,3.4079,3.4132,3.423,3.4311,3.4462,3.4527,3.462,3.4628,3.468,3.4642,3.4625,3.4625,3.4619,3.4625,3.4685,3.4686,3.4687,3.4687,0,3.3535,3.3561,3.3647,3.3743,3.3814,3.3892,3.3969,3.4012,3.408,3.4147,3.4245,3.4308,3.4431,3.4526,3.4624,3.4675,3.4692,3.4699,3.4716,3.4702,3.4676,3.4687,3.4547,3.4694,3.4694,3.4693,3.4693,3.4693,3.3607,3.3671,3.3758,3.3852,3.3916,3.3987,3.4054,3.4111,3.4195,3.43,3.4327,3.4429,3.4512,3.4644,3.4698,3.4777,3.4769,3.4794,3.48,3.4804,3.4804,3.4665,3.4795,3.4795,3.4795,3.4795,3.4795,0,3.3719,3.3776,3.3862,3.3969,3.4042,3.4053,3.4139,3.4198,3.4288,3.4364,3.4443,3.4554,3.4646,3.4718,3.4812,3.4861,3.4871,3.4884,3.4879,3.489,3.4807,3.4782,3.4874,3.4874,3.4874,3.4874,3.4874,3.4874,3.3786,3.3895,3.3931,3.4071,3.4127,3.4228,3.4275,3.434,3.4401,3.4524,3.46,3.4647,3.4721,3.482,3.4904,3.4923,3.4954,3.4965,3.4985,3.4905,3.4896,3.4888,3.4864,3.4972,3.4973,3.5061,3.5062,3.5062]},{"header":{"parameterUnit":"m.s-1","parameterCategory":1,"la1":30.2991,"la2":30.254,"lo1":-89.0895,"lo2":-89.0444,"dy":0.0017,"dx":0.0017,"nx":28,"ny":28,"refTime":"2026-02-25T03:00:00:Z","depth":0,"parameterNumber":3,"parameterNumberName":"V-component_of_WINDS"},"data":[0,0,0,0,0,0,0,0,0,0,0,0,0,0,0,0,0,0,0,0,0,0,0,0,0,0,0,0,0,0,0,0,0,0,0,0,0,0,0,0,0,0,0,0,0,0,0,0,0,0,0,0,0,0,0,0,0,0,6.0371,6.0373,0,6.0561,6.0563,6.0565,6.0523,6.052,6.0516,6.0513,6.0699,6.0707,6.0715,0,0,0,0,0,0,0,0,0,0,0,0,0,5.9959,5.9967,6.037,6.0373,6.0375,6.0561,6.0563,6.0566,6.0524,6.052,6.0515,6.0511,6.0696,6.0706,6.0716,0,0,0,0,0,0,0,0,0,0,0,0,0,6.0142,5.9969,6.037,6.0377,6.0379,6.056,6.0563,6.0567,6.0525,6.0519,6.0514,6.0509,6.0693,6.0705,6.0717,6.09,0,0,6.0755,6.076,0,0,0,0,0,0,0,0,6.0132,6.0157,6.0373,6.0377,6.038,6.0513,6.0486,6.0678,6.0526,6.0469,6.0513,6.0507,6.0641,6.0657,6.0704,6.0909,6.0917,6.0756,6.0764,6.0769,6.0773,0,0,0,0,0,0,0,6.0119,6.0149,6.0445,6.0376,6.038,6.0367,6.0387,6.0523,6.0582,6.0474,6.0471,6.0495,6.0641,6.0692,6.0708,6.092,6.0756,6.0767,6.0775,6.0779,6.128,6.1285,0,0,0,0,0,0,6.0105,6.0139,6.0439,6.0451,6.024,6.0378,6.0401,6.0476,6.0581,6.0592,6.0499,6.0492,6.0674,6.0694,6.0715,6.0934,6.0769,6.0781,6.0788,6.1274,6.1281,6.1287,0,0,0,0,0,0,6.0096,6.0132,6.0432,6.0294,6.0331,6.0391,6.0475,6.0482,6.0533,6.06,6.0609,6.0541,6.067,6.0697,6.0854,6.094,6.0786,6.0797,6.1267,6.1276,6.1284,6.1375,0,0,0,0,0,0,6.0085,6.013,6.0203,6.0296,6.0339,6.0572,6.0481,6.049,6.0556,6.0548,6.0642,6.0652,6.0668,6.0836,6.0867,6.0954,6.0807,6.1259,6.1271,6.1281,6.1364,6.1385,6.1403,0,0,0,0,0,6.007,6.0219,6.0207,6.0243,6.0432,6.0577,6.0601,6.0619,6.0563,6.0635,6.0677,6.0649,6.0925,6.0852,6.0886,6.0979,6.1254,6.1268,6.128,6.1355,6.1381,6.1403,0,0,0,0,0,0,6.0132,6.0232,6.0219,6.0404,6.0482,6.057,6.0661,6.0646,6.0741,6.0729,6.0745,6.0766,6.0926,6.0968,6.0885,6.1159,6.1081,6.1102,6.1126,6.1152,6.1171,6.1157,6.0817,0,0,0,0,0,6.0167,6.028,6.036,6.0515,6.0555,6.0602,6.0665,6.0673,6.0753,6.0786,6.084,6.0916,6.102,6.1088,6.1187,6.137,6.1387,6.145,6.1469,6.1485,6.1502,6.1598,6.1626,6.133,6.133,6.133,0,0,6.0241,6.0309,6.0379,6.0529,6.0591,6.0703,6.063,6.0753,6.0835,6.0803,6.0955,6.0997,6.1083,6.1253,6.133,6.1293,6.1588,6.1502,6.1514,6.1523,6.1614,6.1642,6.1667,6.1339,6.1338,6.1336,0,0,6.0433,6.0497,6.0632,6.0696,6.0791,6.0821,6.0853,6.0942,6.097,6.1123,6.11,6.1196,6.1376,6.1437,6.1492,6.1704,6.168,6.1735,6.1837,6.1931,6.1954,6.1974,6.2047,6.2074,6.1752,6.1753,6.1753,0,6.0511,6.0684,6.0703,6.0828,6.0892,6.0871,6.1005,6.1064,6.1186,6.1229,6.1186,6.1409,6.1466,6.1648,6.1699,6.1745,6.1779,6.1725,6.195,6.1971,6.199,6.2059,6.2087,6.1758,6.1758,6.1757,6.1757,0,6.0774,6.0893,6.099,6.1111,6.1186,6.1315,6.135,6.1423,6.1422,6.1455,6.1608,6.1676,6.1787,6.183,6.1831,6.2012,6.1985,6.1946,6.1868,6.2024,6.2089,6.2116,6.1767,6.1765,6.1763,6.1762,0,0,6.1011,6.114,6.1175,6.1228,6.133,6.1421,6.1546,6.1657,6.1718,6.1802,6.1905,6.2056,6.202,6.2082,6.2088,6.217,6.233,6.212,6.2122,6.2155,6.2529,6.2558,6.2589,6.2315,6.232,6.2324,6.2521,0,6.1211,6.1437,6.1456,6.1657,6.1765,6.1744,6.1853,6.1925,6.1958,6.2051,6.2086,6.2192,6.2137,6.2174,6.2254,6.2293,6.2405,6.2279,6.2407,6.2412,6.2386,6.2623,6.2654,6.2838,6.2547,6.2552,6.2555,0,6.1475,6.1568,6.1781,6.1865,6.1911,6.2009,6.2111,6.2202,6.2281,6.2298,6.2367,6.2361,6.2486,6.2403,6.2573,6.2487,6.254,6.2566,6.2573,6.2585,6.2492,6.2639,6.2897,6.2923,6.2596,6.2593,6.259,0,6.1623,6.1802,6.1952,6.1998,6.2101,6.217,6.2215,6.2289,6.2354,6.2441,6.2482,6.2582,6.2636,6.2712,6.2731,6.267,6.2899,6.2819,6.2914,6.2914,6.2963,6.296,6.3231,6.3,6.2999,6.2999,6.2998,0,6.1844,6.1974,6.202,6.2112,6.2256,6.2274,6.2415,6.2455,6.2521,6.2617,6.2604,6.2694,6.2715,6.2808,6.2823,6.2959,6.2984,6.2999,6.3001,6.3,6.2998,6.3034,6.3021,6.3006,6.3004,6.3003,6.3002,0,6.2035,6.2071,6.2233,6.2317,6.2341,6.2443,6.2512,6.2598,6.2629,6.275,6.2779,6.2826,6.2934,6.2961,6.309,6.31,6.326,6.3251,6.3234,6.3233,6.3326,6.3316,6.3629,6.367,6.3413,6.3416,6.3418,0,6.2173,6.2273,6.2367,6.2432,6.2481,6.2586,6.2652,6.2672,6.2741,6.2837,6.2911,6.3017,6.3104,6.3277,6.3319,6.3416,6.3408,6.3511,6.3422,6.3417,6.3407,6.3401,6.3409,6.3527,6.353,6.3532,6.3534,0,6.2412,6.2425,6.2523,6.2626,6.2706,6.2787,6.2865,6.2918,6.2948,6.3025,6.3137,6.3204,6.3335,6.344,6.3537,6.3579,6.3561,6.3562,6.3589,6.3588,6.3573,6.358,6.3278,6.3554,6.3552,6.3551,6.355,6.3549,6.258,6.2667,6.2747,6.2854,6.2915,6.2988,6.3072,6.3113,6.3208,6.3318,6.3323,6.3444,6.3516,6.3645,6.3692,6.3784,6.3752,6.3792,6.3801,6.381,6.3818,6.356,6.3802,6.3801,6.3801,6.38,6.38,0,6.2817,6.2867,6.2967,6.3077,6.316,6.3139,6.3223,6.3293,6.34,6.3471,6.3557,6.3683,6.3783,6.3834,6.3932,6.3996,6.3989,6.4021,6.4015,6.4025,6.3842,6.3808,6.4024,6.4024,6.4024,6.4024,6.4024,6.4024,6.2951,6.3096,6.3117,6.329,6.3338,6.3459,6.3508,6.3573,6.3629,6.3772,6.3857,6.389,6.3951,6.4053,6.4143,6.4155,6.4191,6.4226,6.4233,6.4061,6.4038,6.4016,6.3984,6.4234,6.4234,6.4408,6.441,6.4411]}]]